Regional Weather Roundup
Issued by NWS

Home | Current Version | Previous Version | Text Only | Print | Product List | Glossary On
Versions: 1 2 3 4 5 6 7 8 9 10 11 12 13 14 15 16 17 18 19 20 21 22 23 24 25 26 27 28 29 30 31 32 33 34 35 36 37 38 39 40 41 42 43 44 45 46 47 48 49 50
000
ASUS43 KLMK 181710
RWRKY
KENTUCKY REGIONAL WEATHER ROUNDUP
NATIONAL WEATHER SERVICE LOUISVILLE KY
1200 PM EST MON DEC 18 2017

NOTE "FAIR" INDICATES FEW OR NO CLOUDS BELOW 12,000 FEET
WITH NO SIGNIFICANT WEATHER AND/OR OBSTRUCTIONS TO VISIBILITY.

KYZ001>023-026-027-061>063-070>075-181800-
WESTERN AND SOUTH CENTRAL KENTUCKY

CITY           SKY/WX    TMP DP  RH WIND       PRES   REMARKS
PADUCAH        CLOUDY    47  44  90 SW10      30.15F
HENDERSON      NOT AVBL
OWENSBORO      CLOUDY    47  45  93 SW10      30.13F
HOPKINSVILLE   CLOUDY    48  48 100 SW12      30.16F
BOWLING GREEN  CLOUDY    49  48  97 SW12      30.17S FOG
GLASGOW        CLOUDY   N/A N/A N/A SW9       30.16S FOG
$$

KYZ024-025-028>034-038-045-046-053-181800-
NORTH CENTRAL KENTUCKY

CITY           SKY/WX    TMP DP  RH WIND       PRES   REMARKS
LOUISVILLE/SDF DRIZZLE   48  45  89 SW6       30.11F
LOUISVILLE/LOU CLOUDY    48  46  93 SW7       30.12F
FORT KNOX      CLOUDY    47  47 100 SW9       30.10F FOG
$$

KYZ035>037-039>044-047>052-055>060-089>105-181800-
NORTHEAST KENTUCKY

CITY           SKY/WX    TMP DP  RH WIND       PRES   REMARKS
LEXINGTON      CLOUDY    48  45  89 SW12G20   30.11F FOG
COVINGTON      DRIZZLE   45  45 100 SW9       30.08F FOG
FRANKFORT      CLOUDY    48  44  86 SW8       30.09F FOG
$$

KYZ054-064>069-076>088-106>120-181800-
SOUTHEAST KENTUCKY

CITY           SKY/WX    TMP DP  RH WIND       PRES   REMARKS
JACKSON        CLOUDY    48  45  89 CALM      30.11F
LONDON         CLOUDY    48  45  89 SW8       30.14F
SOMERSET       CLOUDY    46  46 100 SW5       30.16F
MIDDLESBORO    CLOUDY    45  44  94 SW3       30.17F
MONTICELLO     CLOUDY    49  47  93 W17       30.17S
$$





USA.gov is the U.S. government's official web portal to all federal, state and local government web resources and services.